TimeEST,TemperatureF,Dew PointF,Humidity,Sea Level PressureIn,VisibilityMPH,Wind Direction,Wind SpeedMPH,Gust SpeedMPH,PrecipitationIn,Events,Conditions,WindDirDegrees,DateUTC
12:15 AM,39.2,37.4,93,30.21,10.0,Calm,Calm,-,N/A,,Clear,0,2013-02-07 05:15:00
12:35 AM,39.2,35.6,87,30.20,10.0,Calm,Calm,-,N/A,,Clear,0,2013-02-07 05:35:00
12:55 AM,39.2,37.4,93,30.20,10.0,Calm,Calm,-,N/A,,Clear,0,2013-02-07 05:55:00
1:15 AM,39.2,35.6,87,30.20,10.0,Calm,Calm,-,N/A,,Clear,0,2013-02-07 06:15:00
1:55 AM,37.4,37.4,100,30.20,10.0,Calm,Calm,-,N/A,,Clear,0,2013-02-07 06:55:00
2:15 AM,37.4,35.6,93,30.20,10.0,Calm,Calm,-,N/A,,Clear,0,2013-02-07 07:15:00
2:35 AM,37.4,35.6,93,30.20,10.0,Calm,Calm,-,N/A,,Clear,0,2013-02-07 07:35:00
2:55 AM,37.4,35.6,93,30.20,10.0,Calm,Calm,-,N/A,,Clear,0,2013-02-07 07:55:00
3:15 AM,37.4,35.6,93,30.21,10.0,Calm,Calm,-,N/A,,Clear,0,2013-02-07 08:15:00
3:35 AM,37.4,35.6,93,30.20,10.0,Calm,Calm,-,N/A,,Clear,0,2013-02-07 08:35:00
3:55 AM,37.4,35.6,93,30.20,10.0,Calm,Calm,-,N/A,,Clear,0,2013-02-07 08:55:00
4:15 AM,35.6,35.6,100,30.20,10.0,Calm,Calm,-,N/A,,Clear,0,2013-02-07 09:15:00
4:35 AM,37.4,35.6,93,30.21,10.0,Calm,Calm,-,N/A,,Clear,0,2013-02-07 09:35:00
4:55 AM,37.4,35.6,93,30.22,10.0,Calm,Calm,-,N/A,,Clear,0,2013-02-07 09:55:00
5:15 AM,37.4,37.4,100,30.22,10.0,Calm,Calm,-,N/A,,Clear,0,2013-02-07 10:15:00
5:35 AM,37.4,37.4,100,30.23,10.0,Calm,Calm,-,N/A,,Clear,0,2013-02-07 10:35:00
5:55 AM,37.4,37.4,100,30.23,8.0,Calm,Calm,-,N/A,,Clear,0,2013-02-07 10:55:00
6:15 AM,37.4,37.4,100,30.22,7.0,Calm,Calm,-,N/A,,Clear,0,2013-02-07 11:15:00
6:35 AM,37.4,37.4,100,30.22,7.0,NNE,3.5,-,N/A,,Clear,30,2013-02-07 11:35:00
6:55 AM,39.2,39.2,100,30.22,7.0,NNE,4.6,-,N/A,,Clear,30,2013-02-07 11:55:00
7:15 AM,41.0,41.0,100,30.22,7.0,NNE,3.5,-,N/A,,Clear,30,2013-02-07 12:15:00
7:35 AM,41.0,41.0,100,30.22,7.0,NE,4.6,-,N/A,,Clear,50,2013-02-07 12:35:00
7:55 AM,41.0,41.0,100,30.22,7.0,NE,5.8,-,N/A,,Clear,50,2013-02-07 12:55:00
8:15 AM,42.8,42.8,100,30.23,8.0,ENE,3.5,-,N/A,,Partly Cloudy,70,2013-02-07 13:15:00
8:35 AM,44.6,42.8,93,30.22,8.0,NE,5.8,-,N/A,,Clear,50,2013-02-07 13:35:00
8:55 AM,44.6,42.8,93,30.22,8.0,ENE,5.8,-,N/A,,Clear,60,2013-02-07 13:55:00
9:15 AM,46.4,42.8,87,30.21,9.0,ENE,9.2,-,N/A,,Clear,60,2013-02-07 14:15:00
9:35 AM,46.4,42.8,87,30.20,9.0,ENE,10.4,-,N/A,,Clear,70,2013-02-07 14:35:00
9:55 AM,48.2,42.8,82,30.19,10.0,ENE,9.2,-,N/A,,Clear,60,2013-02-07 14:55:00
10:15 AM,50.0,42.8,76,30.20,10.0,ENE,9.2,-,N/A,,Clear,70,2013-02-07 15:15:00
10:35 AM,50.0,42.8,76,30.21,10.0,ENE,8.1,-,N/A,,Scattered Clouds,70,2013-02-07 15:35:00
10:55 AM,50.0,42.8,76,30.21,10.0,ENE,9.2,-,N/A,,Mostly Cloudy,70,2013-02-07 15:55:00
11:15 AM,50.0,42.8,76,30.20,10.0,ENE,5.8,-,N/A,,Overcast,70,2013-02-07 16:15:00
11:35 AM,50.0,42.8,76,30.19,10.0,East,6.9,-,N/A,,Mostly Cloudy,80,2013-02-07 16:35:00
11:55 AM,50.0,42.8,76,30.17,10.0,East,8.1,-,N/A,Rain,Light Rain,80,2013-02-07 16:55:00
12:15 PM,50.0,44.6,82,30.17,7.0,ENE,8.1,-,N/A,Rain,Light Rain,60,2013-02-07 17:15:00
12:35 PM,50.0,46.4,87,30.16,8.0,NE,6.9,-,N/A,Rain,Light Rain,50,2013-02-07 17:35:00
12:55 PM,50.0,46.4,87,30.15,8.0,ENE,6.9,-,N/A,Rain,Light Rain,70,2013-02-07 17:55:00
1:15 PM,50.0,46.4,87,30.14,5.0,ENE,8.1,-,N/A,Rain,Light Rain,60,2013-02-07 18:15:00
1:35 PM,50.0,48.2,94,30.13,6.0,ENE,6.9,-,0.01,Rain,Light Rain,60,2013-02-07 18:35:00
1:55 PM,50.0,48.2,94,30.12,6.0,East,6.9,-,0.01,Rain,Light Rain,100,2013-02-07 18:55:00
2:15 PM,50.0,48.2,94,30.11,5.0,NE,9.2,-,N/A,Rain,Light Rain,50,2013-02-07 19:15:00
2:35 PM,50.0,48.2,94,30.11,5.0,NE,8.1,-,0.01,Rain,Light Rain,50,2013-02-07 19:35:00
2:55 PM,50.0,48.2,94,30.10,5.0,ENE,9.2,-,0.03,Rain,Rain,60,2013-02-07 19:55:00
3:15 PM,50.0,50.0,100,30.08,4.0,ENE,12.7,-,0.01,Rain,Rain,60,2013-02-07 20:15:00
3:35 PM,50.0,50.0,100,30.07,4.0,NE,9.2,-,0.03,Rain,Rain,50,2013-02-07 20:35:00
3:55 PM,50.0,50.0,100,30.07,3.0,NE,8.1,-,0.04,Rain,Rain,50,2013-02-07 20:55:00
4:15 PM,50.0,50.0,100,30.06,3.0,NE,11.5,-,0.02,Rain,Heavy Rain,50,2013-02-07 21:15:00
4:35 PM,48.2,48.2,100,30.05,3.0,NE,12.7,-,0.04,Rain,Rain,40,2013-02-07 21:35:00
4:55 PM,48.2,48.2,100,30.05,2.5,ENE,10.4,-,0.08,Rain,Heavy Rain,60,2013-02-07 21:55:00
5:15 PM,48.2,48.2,100,30.04,3.0,ENE,12.7,19.6,0.03,Rain,Heavy Rain,60,2013-02-07 22:15:00
5:35 PM,48.2,48.2,100,30.03,2.5,ENE,12.7,-,0.06,Rain,Heavy Rain,60,2013-02-07 22:35:00
5:55 PM,48.2,48.2,100,30.03,2.5,ENE,9.2,-,0.10,Rain,Heavy Rain,70,2013-02-07 22:55:00
6:15 PM,48.2,48.2,100,30.02,2.5,ENE,9.2,-,0.03,Rain,Heavy Rain,60,2013-02-07 23:15:00
6:35 PM,48.2,48.2,100,30.01,2.5,ENE,10.4,-,0.10,Rain,Heavy Rain,60,2013-02-07 23:35:00
6:55 PM,48.2,48.2,100,30.00,3.0,NE,12.7,18.4,0.13,Rain,Rain,50,2013-02-07 23:55:00
7:15 PM,48.2,48.2,100,29.99,3.0,ENE,11.5,16.1,0.01,Rain,Light Rain,60,2013-02-08 00:15:00
7:35 PM,48.2,48.2,100,29.98,3.0,ENE,11.5,18.4,0.02,Rain,Rain,70,2013-02-08 00:35:00
7:55 PM,48.2,48.2,100,29.96,3.0,ENE,9.2,19.6,0.03,Rain,Rain,70,2013-02-08 00:55:00
8:15 PM,48.2,48.2,100,29.93,3.0,ENE,16.1,23.0,0.02,Rain,Heavy Rain,70,2013-02-08 01:15:00
8:35 PM,48.2,48.2,100,29.92,3.0,ENE,12.7,19.6,0.06,Rain,Heavy Rain,60,2013-02-08 01:35:00
8:55 PM,48.2,48.2,100,29.91,3.0,ENE,12.7,17.3,0.12,Rain,Heavy Rain,60,2013-02-08 01:55:00
9:15 PM,48.2,48.2,100,29.90,3.0,ENE,13.8,20.7,0.05,Rain,Heavy Rain,60,2013-02-08 02:15:00
9:35 PM,48.2,48.2,100,29.90,3.0,ENE,13.8,20.7,0.11,Rain,Heavy Rain,70,2013-02-08 02:35:00
9:55 PM,48.2,48.2,100,29.88,3.0,NE,13.8,21.9,0.20,Rain,Heavy Rain,50,2013-02-08 02:55:00
10:15 PM,48.2,48.2,100,29.86,3.0,ENE,16.1,21.9,0.08,Rain,Heavy Rain,60,2013-02-08 03:15:00
10:35 PM,48.2,48.2,100,29.87,2.0,NNE,12.7,17.3,0.20,Rain,Heavy Rain,30,2013-02-08 03:35:00
10:55 PM,48.2,48.2,100,29.87,1.5,North,12.7,-,0.39,Rain,Heavy Rain,10,2013-02-08 03:55:00
11:15 PM,48.2,48.2,100,29.88,2.5,North,10.4,19.6,0.11,Rain,Heavy Rain,10,2013-02-08 04:15:00
11:35 PM,46.4,46.4,100,29.88,1.8,North,15.0,-,0.31,Rain,Heavy Rain,350,2013-02-08 04:35:00
11:55 PM,46.4,46.4,100,29.86,1.8,North,12.7,-,0.52,Rain,Heavy Rain,10,2013-02-08 04:55:00